INTELSAT 20 (IS-20) (38740 NORAD) Tracking and Keplerian Element Data

This shows tracking and keplerian element data for the satellite.

Feedback or suggestion? Click here.




ElementValue
Catalog38740
NameINTELSAT 20 (IS-20)
Epoch Orbit2176
Epoch Day197.99089677
Epoch Year2018
RAAN76.3372
Inclination0.009
Eccentricity0.0001287
Argument of Perigee122.6022
Mean Anonmoly161.0379
Mean Motion1.00272944
Decay Rate-4.5E-07
L11 38740U 12043A 18197.99089677 -.00000045 00000-0 00000-0 0 9993
L22 38740 0.0090 76.3372 0001287 122.6022 161.0379 1.00272944 21766

Live tracking and technical data element details for INTELSAT 20 (IS-20) (NORAD 38740). INTELSAT 20 (IS-20) can be tracked NOW for your location showing map with azimuth and elevation plus other details from your city location.

Track the satellite on the map from your city or location and see movement details for azimuth, elevation, latitude, longitude, range, height, and movement on the map or in text.







IsCatalogInMostPopularTable: catalog: 38740, numindb: 103
Update: records affected: 1



GetName: 38740 INTELSAT 20 (IS-20)

Hit Count: updated at: Sat, 21 Jul 2018 07:47:04 GMT